Year,Month,Day,Hour,Minute,Value (Times are PST for insolation in W/m^2)
2017,12,08,00,00,0.00
2017,12,08,00,01,0.00
2017,12,08,00,02,0.00
2017,12,08,00,03,0.00
2017,12,08,00,04,0.00
2017,12,08,00,05,0.00
2017,12,08,00,06,0.00
2017,12,08,00,07,0.00
2017,12,08,00,08,0.00
2017,12,08,00,09,0.00
2017,12,08,00,10,0.00
2017,12,08,00,11,0.00
2017,12,08,00,12,0.00
2017,12,08,00,13,0.00
2017,12,08,00,14,0.00
2017,12,08,00,15,0.00
2017,12,08,00,16,0.00
2017,12,08,00,17,0.00
2017,12,08,00,18,0.00
2017,12,08,00,19,0.00
2017,12,08,00,20,0.00
2017,12,08,00,21,0.00
2017,12,08,00,22,0.00
2017,12,08,00,23,0.00
2017,12,08,00,24,0.00
2017,12,08,00,25,0.00
2017,12,08,00,26,0.00
2017,12,08,00,27,0.00
2017,12,08,00,28,0.00
2017,12,08,00,29,0.00
2017,12,08,00,30,0.00
2017,12,08,00,31,0.00
2017,12,08,00,32,0.00
2017,12,08,00,33,0.00
2017,12,08,00,34,0.00
2017,12,08,00,35,0.00
2017,12,08,00,36,0.00
2017,12,08,00,37,0.00
2017,12,08,00,38,0.00
2017,12,08,00,39,0.00
2017,12,08,00,40,0.00
2017,12,08,00,41,0.00
2017,12,08,00,42,0.00
2017,12,08,00,43,0.00
2017,12,08,00,44,0.00
2017,12,08,00,45,0.00
2017,12,08,00,46,0.00
2017,12,08,00,47,0.00
2017,12,08,00,48,0.00
2017,12,08,00,49,0.00
2017,12,08,00,50,0.00
2017,12,08,00,51,0.00
2017,12,08,00,52,0.00
2017,12,08,00,53,0.00
2017,12,08,00,54,0.00
2017,12,08,00,55,0.00
2017,12,08,00,56,0.00
2017,12,08,00,57,0.00
2017,12,08,00,58,0.00
2017,12,08,00,59,0.00
2017,12,08,01,00,0.00
2017,12,08,01,01,0.00
2017,12,08,01,02,0.00
2017,12,08,01,03,0.00
2017,12,08,01,04,0.00
2017,12,08,01,05,0.00
2017,12,08,01,06,0.00
2017,12,08,01,07,0.00
2017,12,08,01,08,0.00
2017,12,08,01,09,0.00
2017,12,08,01,10,0.00
2017,12,08,01,11,0.00
2017,12,08,01,12,0.00
2017,12,08,01,13,0.00
2017,12,08,01,14,0.00
2017,12,08,01,15,0.00
2017,12,08,01,16,0.00
2017,12,08,01,17,0.00
2017,12,08,01,18,0.00
2017,12,08,01,19,0.00
2017,12,08,01,20,0.00
2017,12,08,01,21,0.00
2017,12,08,01,22,0.00
2017,12,08,01,23,0.00
2017,12,08,01,24,0.00
2017,12,08,01,25,0.00
2017,12,08,01,26,0.00
2017,12,08,01,27,0.00
2017,12,08,01,28,0.00
2017,12,08,01,29,0.00
2017,12,08,01,30,0.00
2017,12,08,01,31,0.00
2017,12,08,01,32,0.00
2017,12,08,01,33,0.00
2017,12,08,01,34,0.00
2017,12,08,01,35,0.00
2017,12,08,01,36,0.00
2017,12,08,01,37,0.00
2017,12,08,01,38,0.00
2017,12,08,01,39,0.00
2017,12,08,01,40,0.00
2017,12,08,01,41,0.00
2017,12,08,01,42,0.00
2017,12,08,01,43,0.00
2017,12,08,01,44,0.00
2017,12,08,01,45,0.00
2017,12,08,01,46,0.00
2017,12,08,01,47,0.00
2017,12,08,01,48,0.00
2017,12,08,01,49,0.00
2017,12,08,01,50,0.00
2017,12,08,01,51,0.00
2017,12,08,01,52,0.00
2017,12,08,01,53,0.00
2017,12,08,01,54,0.00
2017,12,08,01,55,0.00
2017,12,08,01,56,0.00
2017,12,08,01,57,0.00
2017,12,08,01,58,0.00
2017,12,08,01,59,0.00
2017,12,08,02,00,0.00
2017,12,08,02,01,0.00
2017,12,08,02,02,0.00
2017,12,08,02,03,0.00
2017,12,08,02,04,0.00
2017,12,08,02,05,0.00
2017,12,08,02,06,0.00
2017,12,08,02,07,0.00
2017,12,08,02,08,0.00
2017,12,08,02,09,0.00
2017,12,08,02,10,0.00
2017,12,08,02,11,0.00
2017,12,08,02,12,0.00
2017,12,08,02,13,0.00
2017,12,08,02,14,0.00
2017,12,08,02,15,0.00
2017,12,08,02,16,0.00
2017,12,08,02,17,0.00
2017,12,08,02,18,0.00
2017,12,08,02,19,0.00
2017,12,08,02,20,0.00
2017,12,08,02,21,0.00
2017,12,08,02,22,0.00
2017,12,08,02,23,0.00
2017,12,08,02,24,0.00
2017,12,08,02,25,0.00
2017,12,08,02,26,0.00
2017,12,08,02,27,0.00
2017,12,08,02,28,0.00
2017,12,08,02,29,0.00
2017,12,08,02,30,0.00
2017,12,08,02,31,0.00
2017,12,08,02,32,0.00
2017,12,08,02,33,0.00
2017,12,08,02,34,0.00
2017,12,08,02,35,0.00
2017,12,08,02,36,0.00
2017,12,08,02,37,0.00
2017,12,08,02,38,0.00
2017,12,08,02,39,0.00
2017,12,08,02,40,0.00
2017,12,08,02,41,0.00
2017,12,08,02,42,0.00
2017,12,08,02,43,0.00
2017,12,08,02,44,0.00
2017,12,08,02,45,0.00
2017,12,08,02,46,0.00
2017,12,08,02,47,0.00
2017,12,08,02,48,0.00
2017,12,08,02,49,0.00
2017,12,08,02,50,0.00
2017,12,08,02,51,0.00
2017,12,08,02,52,0.00
2017,12,08,02,53,0.00
2017,12,08,02,54,0.00
2017,12,08,02,55,0.00
2017,12,08,02,56,0.00
2017,12,08,02,57,0.00
2017,12,08,02,58,0.00
2017,12,08,02,59,0.00
2017,12,08,03,00,0.00
2017,12,08,03,01,0.00
2017,12,08,03,02,0.00
2017,12,08,03,03,0.00
2017,12,08,03,04,0.00
2017,12,08,03,05,0.00
2017,12,08,03,06,0.00
2017,12,08,03,07,0.00
2017,12,08,03,08,0.00
2017,12,08,03,09,0.00
2017,12,08,03,10,0.00
2017,12,08,03,11,0.00
2017,12,08,03,12,0.00
2017,12,08,03,13,0.00
2017,12,08,03,14,0.00
2017,12,08,03,15,0.00
2017,12,08,03,16,0.00
2017,12,08,03,17,0.00
2017,12,08,03,18,0.00
2017,12,08,03,19,0.00
2017,12,08,03,20,0.00
2017,12,08,03,21,0.00
2017,12,08,03,22,0.00
2017,12,08,03,23,0.00
2017,12,08,03,24,0.00
2017,12,08,03,25,0.00
2017,12,08,03,26,0.00
2017,12,08,03,27,0.00
2017,12,08,03,28,0.00
2017,12,08,03,29,0.00
2017,12,08,03,30,0.00
2017,12,08,03,31,0.00
2017,12,08,03,32,0.00
2017,12,08,03,33,0.00
2017,12,08,03,34,0.00
2017,12,08,03,35,0.00
2017,12,08,03,36,0.00
2017,12,08,03,37,0.00
2017,12,08,03,38,0.00
2017,12,08,03,39,0.00
2017,12,08,03,40,0.00
2017,12,08,03,41,0.00
2017,12,08,03,42,0.00
2017,12,08,03,43,0.00
2017,12,08,03,44,0.00
2017,12,08,03,45,0.00
2017,12,08,03,46,0.00
2017,12,08,03,47,0.00
2017,12,08,03,48,0.00
2017,12,08,03,49,0.00
2017,12,08,03,50,0.00
2017,12,08,03,51,0.00
2017,12,08,03,52,0.00
2017,12,08,03,53,0.00
2017,12,08,03,54,0.00
2017,12,08,03,55,0.00
2017,12,08,03,56,0.00
2017,12,08,03,57,0.00
2017,12,08,03,58,0.00
2017,12,08,03,59,0.00
2017,12,08,04,00,0.00
2017,12,08,04,01,0.00
2017,12,08,04,02,0.00
2017,12,08,04,03,0.00
2017,12,08,04,04,0.00
2017,12,08,04,05,0.00
2017,12,08,04,06,0.00
2017,12,08,04,07,0.00
2017,12,08,04,08,0.00
2017,12,08,04,09,0.00
2017,12,08,04,10,0.00
2017,12,08,04,11,0.00
2017,12,08,04,12,0.00
2017,12,08,04,13,0.00
2017,12,08,04,14,0.00
2017,12,08,04,15,0.00
2017,12,08,04,16,0.00
2017,12,08,04,17,0.00
2017,12,08,04,18,0.00
2017,12,08,04,19,0.00
2017,12,08,04,20,0.00
2017,12,08,04,21,0.00
2017,12,08,04,22,0.00
2017,12,08,04,23,0.00
2017,12,08,04,24,0.00
2017,12,08,04,25,0.00
2017,12,08,04,26,0.00
2017,12,08,04,27,0.00
2017,12,08,04,28,0.00
2017,12,08,04,29,0.00
2017,12,08,04,30,0.00
2017,12,08,04,31,0.00
2017,12,08,04,32,0.00
2017,12,08,04,33,0.00
2017,12,08,04,34,0.00
2017,12,08,04,35,0.00
2017,12,08,04,36,0.00
2017,12,08,04,37,0.00
2017,12,08,04,38,0.00
2017,12,08,04,39,0.00
2017,12,08,04,40,0.00
2017,12,08,04,41,0.00
2017,12,08,04,42,0.00
2017,12,08,04,43,0.00
2017,12,08,04,44,0.00
2017,12,08,04,45,0.00
2017,12,08,04,46,0.00
2017,12,08,04,47,0.00
2017,12,08,04,48,0.00
2017,12,08,04,49,0.00
2017,12,08,04,50,0.00
2017,12,08,04,51,0.00
2017,12,08,04,52,0.00
2017,12,08,04,53,0.00
2017,12,08,04,54,0.00
2017,12,08,04,55,0.00
2017,12,08,04,56,0.00
2017,12,08,04,57,0.00
2017,12,08,04,58,0.00
2017,12,08,04,59,0.00
2017,12,08,05,00,0.00
2017,12,08,05,01,0.00
2017,12,08,05,02,0.00
2017,12,08,05,03,0.00
2017,12,08,05,04,0.00
2017,12,08,05,05,0.00
2017,12,08,05,06,0.00
2017,12,08,05,07,0.00
2017,12,08,05,08,0.00
2017,12,08,05,09,0.00
2017,12,08,05,10,0.00
2017,12,08,05,11,0.00
2017,12,08,05,12,0.00
2017,12,08,05,13,0.00
2017,12,08,05,14,0.00
2017,12,08,05,15,0.00
2017,12,08,05,16,0.00
2017,12,08,05,17,0.00
2017,12,08,05,18,0.00
2017,12,08,05,19,0.00
2017,12,08,05,20,0.00
2017,12,08,05,21,0.00
2017,12,08,05,22,0.00
2017,12,08,05,23,0.00
2017,12,08,05,24,0.00
2017,12,08,05,25,0.00
2017,12,08,05,26,0.00
2017,12,08,05,27,0.00
2017,12,08,05,28,0.00
2017,12,08,05,29,0.00
2017,12,08,05,30,0.00
2017,12,08,05,31,0.00
2017,12,08,05,32,0.00
2017,12,08,05,33,0.00
2017,12,08,05,34,0.00
2017,12,08,05,35,0.00
2017,12,08,05,36,0.00
2017,12,08,05,37,0.00
2017,12,08,05,38,0.00
2017,12,08,05,39,0.00
2017,12,08,05,40,0.00
2017,12,08,05,41,0.00
2017,12,08,05,42,0.00
2017,12,08,05,43,0.00
2017,12,08,05,44,0.00
2017,12,08,05,45,0.00
2017,12,08,05,46,0.00
2017,12,08,05,47,0.00
2017,12,08,05,48,0.00
2017,12,08,05,49,0.00
2017,12,08,05,50,0.00
2017,12,08,05,51,0.00
2017,12,08,05,52,0.00
2017,12,08,05,53,0.00
2017,12,08,05,54,0.00
2017,12,08,05,55,0.00
2017,12,08,05,56,0.00
2017,12,08,05,57,0.00
2017,12,08,05,58,0.00
2017,12,08,05,59,0.00
2017,12,08,06,00,0.00
2017,12,08,06,01,0.00
2017,12,08,06,02,0.00
2017,12,08,06,03,0.00
2017,12,08,06,04,0.00
2017,12,08,06,05,0.00
2017,12,08,06,06,0.00
2017,12,08,06,07,0.00
2017,12,08,06,08,0.00
2017,12,08,06,09,0.00
2017,12,08,06,10,0.00
2017,12,08,06,11,0.00
2017,12,08,06,12,0.00
2017,12,08,06,13,0.00
2017,12,08,06,14,0.00
2017,12,08,06,15,0.00
2017,12,08,06,16,0.00
2017,12,08,06,17,0.00
2017,12,08,06,18,0.00
2017,12,08,06,19,0.00
2017,12,08,06,20,0.00
2017,12,08,06,21,0.00
2017,12,08,06,22,0.00
2017,12,08,06,23,0.00
2017,12,08,06,24,0.00
2017,12,08,06,25,0.00
2017,12,08,06,26,0.00
2017,12,08,06,27,0.00
2017,12,08,06,28,0.00
2017,12,08,06,29,0.00
2017,12,08,06,30,0.00
2017,12,08,06,31,0.00
2017,12,08,06,32,0.00
2017,12,08,06,33,0.00
2017,12,08,06,34,0.00
2017,12,08,06,35,0.00
2017,12,08,06,36,0.00
2017,12,08,06,37,0.00
2017,12,08,06,38,0.00
2017,12,08,06,39,0.00
2017,12,08,06,40,0.00
2017,12,08,06,41,0.00
2017,12,08,06,42,0.00
2017,12,08,06,43,0.00
2017,12,08,06,44,0.00
2017,12,08,06,45,0.00
2017,12,08,06,46,0.00
2017,12,08,06,47,0.00
2017,12,08,06,48,0.00
2017,12,08,06,49,0.00
2017,12,08,06,50,0.00
2017,12,08,06,51,0.00
2017,12,08,06,52,0.00
2017,12,08,06,53,0.00
2017,12,08,06,54,0.00
2017,12,08,06,55,0.00
2017,12,08,06,56,0.00
2017,12,08,06,57,0.00
2017,12,08,06,58,0.00
2017,12,08,06,59,0.00
2017,12,08,07,00,0.00
2017,12,08,07,01,0.00
2017,12,08,07,02,0.00
2017,12,08,07,03,0.00
2017,12,08,07,04,0.00
2017,12,08,07,05,0.00
2017,12,08,07,06,0.00
2017,12,08,07,07,0.00
2017,12,08,07,08,0.00
2017,12,08,07,09,0.00
2017,12,08,07,10,0.00
2017,12,08,07,11,0.00
2017,12,08,07,12,0.00
2017,12,08,07,13,0.00
2017,12,08,07,14,0.00
2017,12,08,07,15,0.00
2017,12,08,07,16,0.00
2017,12,08,07,17,0.00
2017,12,08,07,18,0.00
2017,12,08,07,19,0.00
2017,12,08,07,20,0.00
2017,12,08,07,21,0.00
2017,12,08,07,22,0.00
2017,12,08,07,23,0.00
2017,12,08,07,24,0.00
2017,12,08,07,25,0.00
2017,12,08,07,26,0.00
2017,12,08,07,27,0.00
2017,12,08,07,28,0.00
2017,12,08,07,29,0.00
2017,12,08,07,30,0.00
2017,12,08,07,31,0.00
2017,12,08,07,32,0.00
2017,12,08,07,33,0.00
2017,12,08,07,34,0.00
2017,12,08,07,35,0.00
2017,12,08,07,36,0.00
2017,12,08,07,37,0.00
2017,12,08,07,38,0.00
2017,12,08,07,39,0.00
2017,12,08,07,40,0.00
2017,12,08,07,41,0.00
2017,12,08,07,42,0.00
2017,12,08,07,43,0.00
2017,12,08,07,44,0.00
2017,12,08,07,45,0.00
2017,12,08,07,46,0.00
2017,12,08,07,47,0.00
2017,12,08,07,48,0.00
2017,12,08,07,49,0.00
2017,12,08,07,50,0.00
2017,12,08,07,51,0.00
2017,12,08,07,52,0.00
2017,12,08,07,53,0.00
2017,12,08,07,54,0.00
2017,12,08,07,55,0.00
2017,12,08,07,56,0.00
2017,12,08,07,57,0.00
2017,12,08,07,58,0.00
2017,12,08,07,59,0.00
2017,12,08,08,00,3.80
2017,12,08,08,01,5.00
2017,12,08,08,02,5.00
2017,12,08,08,03,5.00
2017,12,08,08,04,5.00
2017,12,08,08,05,5.00
2017,12,08,08,06,5.00
2017,12,08,08,07,5.00
2017,12,08,08,08,6.90
2017,12,08,08,09,7.00
2017,12,08,08,10,7.00
2017,12,08,08,11,7.00
2017,12,08,08,12,7.00
2017,12,08,08,13,7.00
2017,12,08,08,14,7.00
2017,12,08,08,15,7.00
2017,12,08,08,16,7.00
2017,12,08,08,17,7.60
2017,12,08,08,18,9.00
2017,12,08,08,19,9.00
2017,12,08,08,20,9.00
2017,12,08,08,21,9.00
2017,12,08,08,22,9.00
2017,12,08,08,23,9.00
2017,12,08,08,24,9.60
2017,12,08,08,25,11.00
2017,12,08,08,26,11.00
2017,12,08,08,27,11.00
2017,12,08,08,28,11.00
2017,12,08,08,29,11.00
2017,12,08,08,30,11.00
2017,12,08,08,31,11.00
2017,12,08,08,32,11.00
2017,12,08,08,33,11.60
2017,12,08,08,34,12.00
2017,12,08,08,35,12.00
2017,12,08,08,36,12.00
2017,12,08,08,37,12.00
2017,12,08,08,38,12.00
2017,12,08,08,39,12.00
2017,12,08,08,40,13.10
2017,12,08,08,41,14.00
2017,12,08,08,42,14.00
2017,12,08,08,43,14.00
2017,12,08,08,44,14.30
2017,12,08,08,45,16.00
2017,12,08,08,46,16.00
2017,12,08,08,47,16.00
2017,12,08,08,48,17.30
2017,12,08,08,49,18.00
2017,12,08,08,50,18.00
2017,12,08,08,51,18.00
2017,12,08,08,52,18.00
2017,12,08,08,53,18.40
2017,12,08,08,54,19.00
2017,12,08,08,55,19.00
2017,12,08,08,56,19.00
2017,12,08,08,57,20.80
2017,12,08,08,58,21.00
2017,12,08,08,59,21.60
2017,12,08,09,00,23.80
2017,12,08,09,01,25.50
2017,12,08,09,02,25.30
2017,12,08,09,03,21.80
2017,12,08,09,04,21.00
2017,12,08,09,05,20.70
2017,12,08,09,06,19.00
2017,12,08,09,07,19.00
2017,12,08,09,08,19.00
2017,12,08,09,09,19.00
2017,12,08,09,10,19.00
2017,12,08,09,11,19.00
2017,12,08,09,12,19.00
2017,12,08,09,13,19.00
2017,12,08,09,14,19.00
2017,12,08,09,15,19.00
2017,12,08,09,16,19.00
2017,12,08,09,17,19.00
2017,12,08,09,18,19.10
2017,12,08,09,19,21.00
2017,12,08,09,20,21.00
2017,12,08,09,21,21.00
2017,12,08,09,22,21.00
2017,12,08,09,23,22.30
2017,12,08,09,24,23.00
2017,12,08,09,25,25.20
2017,12,08,09,26,39.40
2017,12,08,09,27,59.00
2017,12,08,09,28,76.60
2017,12,08,09,29,85.80
2017,12,08,09,30,95.70
2017,12,08,09,31,106.80
2017,12,08,09,32,120.20
2017,12,08,09,33,131.80
2017,12,08,09,34,109.20
2017,12,08,09,35,71.50
2017,12,08,09,36,45.10
2017,12,08,09,37,56.40
2017,12,08,09,38,112.60
2017,12,08,09,39,182.10
2017,12,08,09,40,207.30
2017,12,08,09,41,210.10
2017,12,08,09,42,214.20
2017,12,08,09,43,218.80
2017,12,08,09,44,226.20
2017,12,08,09,45,229.00
2017,12,08,09,46,216.90
2017,12,08,09,47,217.20
2017,12,08,09,48,226.40
2017,12,08,09,49,235.80
2017,12,08,09,50,246.10
2017,12,08,09,51,252.60
2017,12,08,09,52,253.40
2017,12,08,09,53,253.10
2017,12,08,09,54,257.50
2017,12,08,09,55,260.60
2017,12,08,09,56,262.00
2017,12,08,09,57,262.00
2017,12,08,09,58,243.70
2017,12,08,09,59,213.50
2017,12,08,10,00,231.00
2017,12,08,10,01,278.70
2017,12,08,10,02,283.60
2017,12,08,10,03,285.00
2017,12,08,10,04,286.10
2017,12,08,10,05,285.70
2017,12,08,10,06,287.40
2017,12,08,10,07,287.90
2017,12,08,10,08,285.90
2017,12,08,10,09,289.40
2017,12,08,10,10,288.80
2017,12,08,10,11,291.00
2017,12,08,10,12,290.70
2017,12,08,10,13,290.00
2017,12,08,10,14,290.80
2017,12,08,10,15,256.80
2017,12,08,10,16,206.90
2017,12,08,10,17,110.50
2017,12,08,10,18,54.20
2017,12,08,10,19,49.70
2017,12,08,10,20,53.40
2017,12,08,10,21,49.30
2017,12,08,10,22,43.70
2017,12,08,10,23,43.60
2017,12,08,10,24,51.70
2017,12,08,10,25,58.00
2017,12,08,10,26,62.60
2017,12,08,10,27,63.40
2017,12,08,10,28,60.10
2017,12,08,10,29,52.60
2017,12,08,10,30,46.00
2017,12,08,10,31,45.20
2017,12,08,10,32,45.00
2017,12,08,10,33,68.90
2017,12,08,10,34,83.40
2017,12,08,10,35,60.30
2017,12,08,10,36,48.90
2017,12,08,10,37,68.20
2017,12,08,10,38,98.50
2017,12,08,10,39,90.00
2017,12,08,10,40,86.20
2017,12,08,10,41,125.60
2017,12,08,10,42,149.40
2017,12,08,10,43,153.30
2017,12,08,10,44,149.50
2017,12,08,10,45,122.80
2017,12,08,10,46,105.60
2017,12,08,10,47,95.90
2017,12,08,10,48,86.90
2017,12,08,10,49,73.40
2017,12,08,10,50,72.00
2017,12,08,10,51,66.90
2017,12,08,10,52,54.80
2017,12,08,10,53,88.10
2017,12,08,10,54,145.50
2017,12,08,10,55,140.40
2017,12,08,10,56,102.10
2017,12,08,10,57,103.90
2017,12,08,10,58,91.50
2017,12,08,10,59,75.80
2017,12,08,11,00,63.30
2017,12,08,11,01,50.70
2017,12,08,11,02,49.00
2017,12,08,11,03,52.80
2017,12,08,11,04,60.30
2017,12,08,11,05,76.80
2017,12,08,11,06,91.40
2017,12,08,11,07,126.30
2017,12,08,11,08,211.80
2017,12,08,11,09,289.80
2017,12,08,11,10,331.70
2017,12,08,11,11,362.70
2017,12,08,11,12,368.70
2017,12,08,11,13,373.40
2017,12,08,11,14,376.10
2017,12,08,11,15,380.00
2017,12,08,11,16,382.60
2017,12,08,11,17,384.80
2017,12,08,11,18,385.00
2017,12,08,11,19,385.60
2017,12,08,11,20,387.00
2017,12,08,11,21,385.90
2017,12,08,11,22,374.50
2017,12,08,11,23,369.00
2017,12,08,11,24,366.70
2017,12,08,11,25,299.00
2017,12,08,11,26,273.80
2017,12,08,11,27,239.00
2017,12,08,11,28,239.00
2017,12,08,11,29,121.70
2017,12,08,11,30,60.00
2017,12,08,11,31,89.00
2017,12,08,11,32,78.00
2017,12,08,11,33,83.30
2017,12,08,11,34,85.70
2017,12,08,11,35,94.40
2017,12,08,11,36,80.30
2017,12,08,11,37,88.20
2017,12,08,11,38,126.40
2017,12,08,11,39,194.00
2017,12,08,11,40,282.60
2017,12,08,11,41,329.60
2017,12,08,11,42,365.30
2017,12,08,11,43,376.00
2017,12,08,11,44,373.70
2017,12,08,11,45,374.00
2017,12,08,11,46,378.00
2017,12,08,11,47,378.00
2017,12,08,11,48,378.00
2017,12,08,11,49,377.00
2017,12,08,11,50,353.10
2017,12,08,11,51,269.60
2017,12,08,11,52,244.90
2017,12,08,11,53,78.40
2017,12,08,11,54,61.40
2017,12,08,11,55,68.70
2017,12,08,11,56,114.10
2017,12,08,11,57,155.20
2017,12,08,11,58,130.90
2017,12,08,11,59,88.90
2017,12,08,12,00,65.70
2017,12,08,12,01,73.90
2017,12,08,12,02,86.80
2017,12,08,12,03,76.40
2017,12,08,12,04,58.20
2017,12,08,12,05,55.50
2017,12,08,12,06,59.30
2017,12,08,12,07,52.70
2017,12,08,12,08,51.80
2017,12,08,12,09,66.40
2017,12,08,12,10,88.80
2017,12,08,12,11,100.90
2017,12,08,12,12,106.60
2017,12,08,12,13,121.80
2017,12,08,12,14,135.60
2017,12,08,12,15,134.60
2017,12,08,12,16,123.80
2017,12,08,12,17,126.60
2017,12,08,12,18,139.80
2017,12,08,12,19,155.50
2017,12,08,12,20,156.10
2017,12,08,12,21,115.00
2017,12,08,12,22,91.40
2017,12,08,12,23,108.50
2017,12,08,12,24,93.20
2017,12,08,12,25,60.70
2017,12,08,12,26,46.60
2017,12,08,12,27,44.30
2017,12,08,12,28,49.40
2017,12,08,12,29,78.80
2017,12,08,12,30,115.20
2017,12,08,12,31,122.80
2017,12,08,12,32,125.40
2017,12,08,12,33,185.40
2017,12,08,12,34,253.20
2017,12,08,12,35,297.20
2017,12,08,12,36,329.40
2017,12,08,12,37,351.70
2017,12,08,12,38,348.40
2017,12,08,12,39,335.10
2017,12,08,12,40,289.20
2017,12,08,12,41,191.70
2017,12,08,12,42,162.70
2017,12,08,12,43,159.30
2017,12,08,12,44,115.80
2017,12,08,12,45,79.20
2017,12,08,12,46,94.30
2017,12,08,12,47,111.90
2017,12,08,12,48,107.20
2017,12,08,12,49,152.00
2017,12,08,12,50,189.50
2017,12,08,12,51,134.90
2017,12,08,12,52,89.40
2017,12,08,12,53,86.00
2017,12,08,12,54,86.00
2017,12,08,12,55,334.00
2017,12,08,12,56,354.30
2017,12,08,12,57,335.90
2017,12,08,12,58,299.00
2017,12,08,12,59,220.90
2017,12,08,13,00,157.20
2017,12,08,13,01,173.10
2017,12,08,13,02,230.90
2017,12,08,13,03,319.00
2017,12,08,13,04,347.40
2017,12,08,13,05,346.00
2017,12,08,13,06,345.40
2017,12,08,13,07,343.70
2017,12,08,13,08,343.00
2017,12,08,13,09,341.10
2017,12,08,13,10,338.80
2017,12,08,13,11,336.90
2017,12,08,13,12,334.00
2017,12,08,13,13,334.00
2017,12,08,13,14,332.70
2017,12,08,13,15,330.40
2017,12,08,13,16,329.10
2017,12,08,13,17,328.70
2017,12,08,13,18,326.40
2017,12,08,13,19,324.20
2017,12,08,13,20,322.40
2017,12,08,13,21,322.00
2017,12,08,13,22,320.50
2017,12,08,13,23,318.10
2017,12,08,13,24,315.80
2017,12,08,13,25,315.00
2017,12,08,13,26,314.20
2017,12,08,13,27,311.90
2017,12,08,13,28,309.60
2017,12,08,13,29,306.60
2017,12,08,13,30,291.60
2017,12,08,13,31,238.70
2017,12,08,13,32,251.10
2017,12,08,13,33,293.40
2017,12,08,13,34,299.90
2017,12,08,13,35,294.40
2017,12,08,13,36,290.50
2017,12,08,13,37,287.90
2017,12,08,13,38,274.60
2017,12,08,13,39,256.00
2017,12,08,13,40,257.30
2017,12,08,13,41,263.40
2017,12,08,13,42,211.50
2017,12,08,13,43,222.10
2017,12,08,13,44,259.20
2017,12,08,13,45,268.80
2017,12,08,13,46,251.90
2017,12,08,13,47,237.20
2017,12,08,13,48,242.80
2017,12,08,13,49,244.70
2017,12,08,13,50,238.40
2017,12,08,13,51,207.50
2017,12,08,13,52,154.30
2017,12,08,13,53,115.30
2017,12,08,13,54,80.20
2017,12,08,13,55,90.50
2017,12,08,13,56,133.20
2017,12,08,13,57,131.70
2017,12,08,13,58,79.70
2017,12,08,13,59,77.40
2017,12,08,14,00,75.90
2017,12,08,14,01,55.90
2017,12,08,14,02,54.60
2017,12,08,14,03,63.10
2017,12,08,14,04,93.60
2017,12,08,14,05,96.00
2017,12,08,14,06,113.00
2017,12,08,14,07,174.30
2017,12,08,14,08,139.20
2017,12,08,14,09,107.00
2017,12,08,14,10,149.60
2017,12,08,14,11,201.30
2017,12,08,14,12,213.30
2017,12,08,14,13,202.70
2017,12,08,14,14,159.80
2017,12,08,14,15,167.10
2017,12,08,14,16,207.50
2017,12,08,14,17,214.70
2017,12,08,14,18,210.20
2017,12,08,14,19,207.20
2017,12,08,14,20,206.60
2017,12,08,14,21,203.40
2017,12,08,14,22,201.20
2017,12,08,14,23,199.50
2017,12,08,14,24,197.70
2017,12,08,14,25,187.90
2017,12,08,14,26,170.40
2017,12,08,14,27,163.00
2017,12,08,14,28,163.00
2017,12,08,14,29,164.50
2017,12,08,14,30,173.20
2017,12,08,14,31,177.00
2017,12,08,14,32,153.80
2017,12,08,14,33,101.10
2017,12,08,14,34,60.90
2017,12,08,14,35,47.60
2017,12,08,14,36,38.00
2017,12,08,14,37,34.00
2017,12,08,14,38,33.00
2017,12,08,14,39,37.80
2017,12,08,14,40,43.80
2017,12,08,14,41,48.60
2017,12,08,14,42,44.10
2017,12,08,14,43,38.20
2017,12,08,14,44,37.00
2017,12,08,14,45,35.70
2017,12,08,14,46,33.40
2017,12,08,14,47,39.60
2017,12,08,14,48,41.70
2017,12,08,14,49,40.60
2017,12,08,14,50,43.50
2017,12,08,14,51,49.60
2017,12,08,14,52,66.80
2017,12,08,14,53,79.60
2017,12,08,14,54,72.80
2017,12,08,14,55,72.80
2017,12,08,14,56,90.10
2017,12,08,14,57,82.50
2017,12,08,14,58,65.70
2017,12,08,14,59,53.40
2017,12,08,15,00,52.60
2017,12,08,15,01,61.70
2017,12,08,15,02,55.50
2017,12,08,15,03,55.20
2017,12,08,15,04,62.90
2017,12,08,15,05,68.60
2017,12,08,15,06,69.30
2017,12,08,15,07,63.40
2017,12,08,15,08,62.00
2017,12,08,15,09,64.60
2017,12,08,15,10,75.40
2017,12,08,15,11,78.20
2017,12,08,15,12,79.10
2017,12,08,15,13,79.70
2017,12,08,15,14,75.00
2017,12,08,15,15,65.70
2017,12,08,15,16,57.00
2017,12,08,15,17,48.50
2017,12,08,15,18,39.10
2017,12,08,15,19,33.90
2017,12,08,15,20,33.00
2017,12,08,15,21,33.00
2017,12,08,15,22,32.10
2017,12,08,15,23,32.00
2017,12,08,15,24,31.40
2017,12,08,15,25,30.00
2017,12,08,15,26,29.00
2017,12,08,15,27,28.00
2017,12,08,15,28,28.00
2017,12,08,15,29,27.90
2017,12,08,15,30,26.00
2017,12,08,15,31,26.00
2017,12,08,15,32,26.00
2017,12,08,15,33,26.00
2017,12,08,15,34,25.30
2017,12,08,15,35,25.00
2017,12,08,15,36,23.20
2017,12,08,15,37,23.00
2017,12,08,15,38,22.40
2017,12,08,15,39,21.00
2017,12,08,15,40,21.00
2017,12,08,15,41,19.70
2017,12,08,15,42,19.00
2017,12,08,15,43,19.00
2017,12,08,15,44,18.00
2017,12,08,15,45,18.00
2017,12,08,15,46,18.00
2017,12,08,15,47,16.90
2017,12,08,15,48,16.00
2017,12,08,15,49,16.00
2017,12,08,15,50,16.00
2017,12,08,15,51,16.00
2017,12,08,15,52,16.00
2017,12,08,15,53,16.00
2017,12,08,15,54,14.90
2017,12,08,15,55,14.00
2017,12,08,15,56,14.00
2017,12,08,15,57,14.00
2017,12,08,15,58,13.70
2017,12,08,15,59,12.00
2017,12,08,16,00,12.00
2017,12,08,16,01,12.00
2017,12,08,16,02,12.00
2017,12,08,16,03,11.20
2017,12,08,16,04,11.00
2017,12,08,16,05,11.00
2017,12,08,16,06,10.40
2017,12,08,16,07,9.00
2017,12,08,16,08,9.00
2017,12,08,16,09,9.00
2017,12,08,16,10,7.40
2017,12,08,16,11,7.00
2017,12,08,16,12,7.00
2017,12,08,16,13,7.00
2017,12,08,16,14,6.20
2017,12,08,16,15,5.00
2017,12,08,16,16,5.00
2017,12,08,16,17,5.00
2017,12,08,16,18,4.80
2017,12,08,16,19,0.00
2017,12,08,16,20,0.00
2017,12,08,16,21,0.00
2017,12,08,16,22,0.00
2017,12,08,16,23,0.00
2017,12,08,16,24,0.00
2017,12,08,16,25,0.00
2017,12,08,16,26,0.00
2017,12,08,16,27,0.00
2017,12,08,16,28,0.00
2017,12,08,16,29,0.00
2017,12,08,16,30,0.00
2017,12,08,16,31,0.00
2017,12,08,16,32,0.00
2017,12,08,16,33,0.00
2017,12,08,16,34,0.00
2017,12,08,16,35,0.00
2017,12,08,16,36,0.00
2017,12,08,16,37,0.00
2017,12,08,16,38,0.00
2017,12,08,16,39,0.00
2017,12,08,16,40,0.00
2017,12,08,16,41,0.00
2017,12,08,16,42,0.00
2017,12,08,16,43,0.00
2017,12,08,16,44,0.00
2017,12,08,16,45,0.00
2017,12,08,16,46,0.00
2017,12,08,16,47,0.00
2017,12,08,16,48,0.00
2017,12,08,16,49,0.00
2017,12,08,16,50,0.00
2017,12,08,16,51,0.00
2017,12,08,16,52,0.00
2017,12,08,16,53,0.00
2017,12,08,16,54,0.00
2017,12,08,16,55,0.00
2017,12,08,16,56,0.00
2017,12,08,16,57,0.00
2017,12,08,16,58,0.00
2017,12,08,16,59,0.00
2017,12,08,17,00,0.00
2017,12,08,17,01,0.00
2017,12,08,17,02,0.00
2017,12,08,17,03,0.00
2017,12,08,17,04,0.00
2017,12,08,17,05,0.00
2017,12,08,17,06,0.00
2017,12,08,17,07,0.00
2017,12,08,17,08,0.00
2017,12,08,17,09,0.00
2017,12,08,17,10,0.00
2017,12,08,17,11,0.00
2017,12,08,17,12,0.00
2017,12,08,17,13,0.00
2017,12,08,17,14,0.00
2017,12,08,17,15,0.00
2017,12,08,17,16,0.00
2017,12,08,17,17,0.00
2017,12,08,17,18,0.00
2017,12,08,17,19,0.00
2017,12,08,17,20,0.00
2017,12,08,17,21,0.00
2017,12,08,17,22,0.00
2017,12,08,17,23,0.00
2017,12,08,17,24,0.00
2017,12,08,17,25,0.00
2017,12,08,17,26,0.00
2017,12,08,17,27,0.00
2017,12,08,17,28,0.00
2017,12,08,17,29,0.00
2017,12,08,17,30,0.00
2017,12,08,17,31,0.00
2017,12,08,17,32,0.00
2017,12,08,17,33,0.00
2017,12,08,17,34,0.00
2017,12,08,17,35,0.00